National Weather Service United States Department of Commerce

Latest Hourly Weather Roundup

TOPSWRTT 000
TTAA00 KICT 182212

Wichita AWIPS Roundup
National Weather Service Wichita KS
400 PM CST SUN FEB 18 2018

....Central Kansas....
  
CITY           SKY/WX    TMP DP  RH WIND       PRES   REMARKS
RUSSELL        CLOUDY    73  37  27 S26G39    29.48F                  
SALINA         SUNNY     62  44  51 S26G40    29.59F                  
GREAT BEND     SUNNY     71  38  29 S25G39    29.51F                  
ELLSWORTH      NOT AVBL                                               
MCPHERSON      PTSUNNY   61  45  55 S35G43    29.62S                  
HAYS           CLOUDY    72  34  24 S24G33    29.46F                  

....South Central Kansas....
  
CITY           SKY/WX    TMP DP  RH WIND       PRES   REMARKS
HUTCHINSON     MOSUNNY   60  45  57 S32G38    29.62F                  
NEWTON         MOSUNNY   55  43  62 S30G40    29.64F                  
KINGMAN        SUNNY     59  46  63 S28G36    29.62S                  
WICHITA (ICT)  CLOUDY    56  44  64 S26G36    29.66F                  
JABARA ARPT    CLOUDY    52  43  71 S22G32    29.67F                  
BEECH ARPT     CLOUDY    52  42  66 S22G31    29.68F                  
MCCONNELL AFB  CLOUDY    53  41  65 S24G31    29.68F                  
BENTON         CLOUDY    52  41  67 S15G30    29.69F                  
EL DORADO      CLOUDY    54  41  62 S30G36    29.71F                  
AUGUSTA        CLOUDY    52  43  71 S21G30    29.69F                  
HARPER           N/A     55  43  62 CALM      29.72S                  
WELLINGTON     CLOUDY    54  45  71 S30G37    29.68F                  
WINFIELD       CLOUDY    53  44  71 S25G31    29.75F                  
 
....Southeast Kansas....
  
CITY           SKY/WX    TMP DP  RH WIND       PRES   REMARKS
EUREKA         NOT AVBL                                               
IOLA             N/A     53  38  56 SE17G28   29.80F                  
CHANUTE        CLOUDY    55  40  56 S21G30    29.80F                  
PARSONS        CLOUDY    54  41  61 S12G25    29.83F                  
COFFEYVILLE    CLOUDY    55  42  61 S20G29    29.82F                  
INDEPENDENCE   PTSUNNY   55  42  61 S18G26    29.82F                  
FORT SCOTT     NOT AVBL                                               
PITTSBURG      PTSUNNY   58  40  50 S16G24    29.83F                  

....Western Kansas....
  
CITY           SKY/WX    TMP DP  RH WIND       PRES   REMARKS
GOODLAND       MOSUNNY   70  13  11 SW25G35   29.42F                  
HILL CITY      CLOUDY    71  25  17 S13G23    29.45F                  
LIBERAL        SUNNY     74  29  19 SW33G45   29.54F                  
GARDEN CITY    SUNNY     74  25  16 SW24G39   29.47F                  
DODGE CITY     SUNNY     77  31  18 SW29G47   29.50F                  
PRATT          SUNNY     65  42  42 S35G41    29.56F                  
MEDICINE LODGE   N/A     65  47  52 S24G38    29.61F                  

....Northeast Kansas....
  
CITY           SKY/WX    TMP DP  RH WIND       PRES   REMARKS
CONCORDIA      CLOUDY    62  40  44 S31G39    29.54F                  
TOPEKA         MOSUNNY   57  39  51 S29G38    29.66F                  
MANHATTAN      PTSUNNY   60  42  51 S20G36    29.64S                  
LAWRENCE       MOSUNNY   57  35  43 SE30G39   29.71F                  
OLATHE         MOSUNNY   54  33  45 S22G39    29.75F                  
EMPORIA        SUNNY     54  39  57 S24G36    29.71F                  

....Oklahoma....
  
CITY           SKY/WX    TMP DP  RH WIND       PRES   REMARKS
GAGE           SUNNY     70  44  39 S35G46    29.62F                  
PONCA CITY     CLOUDY    53  43  68 S22G29    29.77F                  
BARTLESVILLE   CLOUDY    55  42  61 S17G28    29.83F                  
TULSA          CLOUDY    54  45  71 S18G29    29.85F                  
OKLAHOMA CITY  CLOUDY    53  46  77 S16       29.80F                  

Note: "fair" indicates few or no clouds below 12,000 feet with no
significant weather and/or obstructions to visibility.